Location: Okie-Tex Star Party
(36.8978°N, 102.9520°W)
Time: 18:46:32
(UTC-06:00)

Amateur Radio Satellites - All Passes

Search period start: 27 February 2017 18:16
Search period end: 28 February 2017 18:16
Location: Okie-Tex Star Party, 36.8978°N, 102.9520°W

Satellite Date Start Highest point End Downlink Frequencies (MHz)
Time Altitude Azimuth
XW-2D 27 Feb 18:21:31 18:25:22 85° 259° (WSW) 18:29:15 145.860 - 145.880
CUTE-I 27 Feb 18:25:59 18:31:20 89° 74° (ENE) 18:36:43 437.470
XW-2B 27 Feb 18:26:39 18:30:29 75° 259° (W) 18:34:21 145.730 - 145.750
XW-2C 27 Feb 18:35:29 18:39:16 56° 260° (W) 18:43:04 145.795 - 145.815
NUDT-PHONESAT 27 Feb 18:38:00 18:41:43 65° 258° (WSW) 18:45:30 437.300
CUTE 1.7 + AOD 2 27 Feb 18:43:23 18:46:08 17° 68° (ENE) 18:48:53 437.475
M-CUBED/EXP-1 PRIME 27 Feb 18:44:25 18:48:17 62° 289° (WNW) 18:52:27 437.505
KKS-1 27 Feb 18:45:23 18:47:26 13° 296° (WNW) 18:49:30 437.445
LilacSat-2 27 Feb 18:55:37 18:59:02 29° 263° (W) 19:02:28 437.200
HO-68 27 Feb 19:09:13 19:16:08 53° 69° (ENE) 19:23:03 435.675
XW-2A 27 Feb 19:09:49 19:13:05 47° 75° (ENE) 19:16:23 145.665 - 145.685
STARS 27 Feb 19:11:42 19:14:10 15° 295° (WNW) 19:16:37 437.465
DOVE 4 27 Feb 19:14:00 19:17:01 20° 266° (W) 19:20:04 437.250
AAUSAT CUBESAT 2 27 Feb 19:18:03 19:19:52 13° 66° (ENE) 19:21:40 437.432
CUBEBUG 2 27 Feb 19:28:00 19:31:36 25° 69° (ENE) 19:35:19 437.445
STRAND 1 27 Feb 19:28:48 19:33:07 26° 96° (E) 19:37:22 437.568
SEEDS 27 Feb 19:34:13 19:38:12 41° 73° (ENE) 19:42:10 437.485
KAITUO 1B 27 Feb 19:43:56 19:44:15 10° 269° (W) 19:44:34 145.475/437.950
UWE-3 27 Feb 19:59:17 20:03:18 33° 71° (ENE) 20:07:25 435.000/436.395/437.385
RS-15 27 Feb 20:12:48 20:22:55 30° 325° (NW) 20:33:18 29.354- 29.394
YUBILEINY 27 Feb 20:13:34 20:17:40 14° 62° (ENE) 20:21:44 435.215
ZACube-1 27 Feb 20:14:26 20:18:16 29° 70° (ENE) 20:22:11 437.345
CUTE 1.7 + AOD 2 27 Feb 20:17:42 20:21:39 37° 262° (W) 20:25:38 437.475
AAUSAT CUBESAT 2 27 Feb 20:50:52 20:54:53 47° 261° (W) 20:58:54 437.432
HO-68 27 Feb 20:58:18 21:04:05 26° 265° (W) 21:09:55 435.675
AO-73 27 Feb 21:00:33 21:05:00 87° 75° (ENE) 21:09:34 145.935
Oscar 11 27 Feb 21:04:00 21:08:21 84° 75° (ENE) 21:12:43 .
CUBEBUG 2 27 Feb 21:04:16 21:08:04 27° 265° (W) 21:11:59 437.445
STRAND 1 27 Feb 21:07:41 21:12:15 33° 291° (WNW) 21:16:47 437.568
SEEDS 27 Feb 21:11:47 21:14:02 14° 268° (W) 21:16:17 437.485
PRISM 27 Feb 21:14:45 21:15:41 11° 92° (E) 21:16:37 437.425
SO-50 27 Feb 21:26:11 21:30:16 30° 113° (ESE) 21:34:19 436.795
JUGNU 27 Feb 21:34:15 21:37:01 14° 175° (S) 21:39:48 437.505
UWE-3 27 Feb 21:36:29 21:39:47 20° 267° (W) 21:43:10 435.000/436.395/437.385
ZACube-1 27 Feb 21:50:56 21:54:30 23° 266° (W) 21:58:08 437.345
DELFI C3 27 Feb 21:59:04 22:03:01 71° 259° (W) 22:06:58 145.870
O/OREOS (USA 219) 27 Feb 22:04:23 22:08:05 26° 102° (ESE) 22:11:47 437.305
YUBILEINY 27 Feb 22:07:10 22:15:56 79° 83° (E) 22:24:37 435.215
TIGRISAT 27 Feb 22:12:28 22:16:10 23° 94° (E) 22:19:48 435.000
UNISAT 6 27 Feb 22:12:55 22:16:46 25° 95° (E) 22:20:33 437.425
RS-15 27 Feb 22:34:32 22:41:35 16° 0° (N) 22:48:36 29.354- 29.394
FO-29 27 Feb 22:40:59 22:47:19 30° 93° (E) 22:53:04 435.910
PRISM 27 Feb 22:47:16 22:51:13 50° 286° (WNW) 22:55:11 437.425
NO-84 27 Feb 23:02:18 23:05:26 21° 34° (NE) 23:08:43 435.350 FM
SO-50 27 Feb 23:06:38 23:10:41 28° 308° (NW) 23:14:41 436.795
JUGNU 27 Feb 23:22:31 23:25:11 13° 186° (S) 23:27:53 437.505
LO-87 27 Feb 23:25:38 23:29:03 48° 260° (W) 23:32:30 145.935 - 145.965
ESTCUBE 1 27 Feb 23:28:17 23:32:46 73° 76° (ENE) 23:37:16 437.505/2401.250
SPROUT 27 Feb 23:29:40 23:32:31 18° 67° (ENE) 23:35:24 437.525
VELOX 1 27 Feb 23:41:55 23:45:47 31° 70° (ENE) 23:49:39 145.980
50 SAT 27 Feb 23:43:15 23:45:36 17° 69° (ENE) 23:47:56 437.505
O/OREOS (USA 219) 27 Feb 23:43:37 23:47:22 26° 298° (WNW) 23:51:09 437.305
TIGRISAT 27 Feb 23:48:42 23:52:50 31° 290° (WNW) 23:56:54 435.000
UNISAT 6 27 Feb 23:49:22 23:53:25 29° 290° (WNW) 23:57:22 437.425
DUCHIFAT 1 27 Feb 23:59:18 00:02:45 23° 96° (E) 00:06:10 145.980
YUBILEINY 28 Feb 00:06:09 00:11:36 19° 281° (W) 00:17:03 435.215
EO-79 28 Feb 00:13:01 00:17:05 41° 99° (E) 00:21:07 145.935-145.965
AIST 2D 28 Feb 00:18:46 00:22:20 81° 284° (WNW) 00:25:51 435.315
PCSat 28 Feb 00:24:29 00:28:18 19° 49° (NE) 00:32:06 145.827
FO-29 28 Feb 00:25:25 00:32:31 47° 292° (WNW) 00:38:55 435.910
SRMSAT 28 Feb 00:26:51 00:29:58 15° 177° (S) 00:33:07 437.500
NANOSAT C BR1 28 Feb 00:28:02 00:32:16 58° 100° (E) 00:36:28 145.865
POLYITAN 1 28 Feb 00:31:18 00:35:36 71° 102° (ESE) 00:39:51 437.675
QB50P2 28 Feb 00:34:23 00:38:42 84° 104° (ESE) 00:42:59 145.880/145.840
NO-84 28 Feb 00:39:16 00:43:23 58° 229° (SW) 00:47:41 435.350 FM
BUGSAT 1 28 Feb 00:44:30 00:48:05 26° 96° (E) 00:51:39 437.445
RS-15 28 Feb 00:49:50 01:00:13 30° 36° (NE) 01:10:15 29.354- 29.394
DX 1 28 Feb 00:59:31 01:03:50 77° 257° (WSW) 01:08:11 434.975-435.025
SPROUT 28 Feb 01:04:16 01:08:09 34° 262° (W) 01:12:04 437.525
UKube-1 28 Feb 01:05:43 01:10:00 88° 84° (E) 01:14:20 .
50 SAT 28 Feb 01:15:44 01:18:32 22° 264° (W) 01:21:20 437.505
Oscar 19 28 Feb 01:17:28 01:20:51 18° 93° (E) 01:24:15 437.125/150
VELOX 1 28 Feb 01:19:01 01:22:15 20° 265° (W) 01:25:29 145.980
DUCHIFAT 1 28 Feb 01:34:49 01:38:20 25° 290° (WNW) 01:41:49 145.980
EO-79 28 Feb 01:49:58 01:52:28 15° 294° (WNW) 01:54:57 145.935-145.965
NANOSAT C BR1 28 Feb 02:06:07 02:07:26 11° 296° (WNW) 02:08:45 145.865
PCSat 28 Feb 02:06:45 02:12:07 61° 247° (WSW) 02:17:26 145.827
SRMSAT 28 Feb 02:15:39 02:18:20 13° 187° (S) 02:21:00 437.500
ITUPSAT 1 28 Feb 02:17:56 02:22:14 34° 70° (ENE) 02:26:34 437.325
MOZHAYETS 4 28 Feb 02:19:54 02:21:36 12° 64° (ENE) 02:23:17
BUGSAT 1 28 Feb 02:19:55 02:23:18 23° 291° (WNW) 02:26:40 437.445
BEESAT 28 Feb 02:22:22 02:26:46 38° 71° (ENE) 02:31:13 436.000
Gurwin Techsat 1B 28 Feb 02:24:46 02:29:53 46° 100° (E) 02:34:56 435.225
Oscar 19 28 Feb 02:55:29 03:00:23 48° 288° (WNW) 03:05:17 437.125/150
RS-15 28 Feb 03:02:14 03:14:36 89° 62° (ENE) 03:26:22 29.354- 29.394
AO-85 28 Feb 03:09:29 03:12:50 20° 112° (ESE) 03:16:03 145.980
AO-7 28 Feb 03:35:26 03:42:39 32° 98° (E) 03:49:48 .
ITAMSAT 1 28 Feb 03:35:47 03:40:38 37° 98° (E) 03:45:25 435.822/435.867
MOZHAYETS 4 28 Feb 03:53:33 03:58:10 65° 259° (W) 04:02:48
ITUPSAT 1 28 Feb 03:56:20 04:00:05 22° 265° (W) 04:03:51 437.325
BEESAT 28 Feb 04:01:12 04:04:39 20° 266° (W) 04:08:07 436.000
KKS-1 28 Feb 04:02:45 04:06:49 37° 71° (ENE) 04:10:54 437.445
Gurwin Techsat 1B 28 Feb 04:05:35 04:09:27 21° 295° (WNW) 04:13:18 435.225
STARS 28 Feb 04:28:24 04:32:14 31° 70° (ENE) 04:36:06 437.465
AO-85 28 Feb 04:48:47 04:53:02 37° 304° (NW) 04:57:01 145.980
CUBESAT XI-V 28 Feb 05:01:08 05:05:48 82° 257° (WSW) 05:10:28 437.345
ITAMSAT 1 28 Feb 05:15:41 05:19:51 25° 294° (WNW) 05:24:00 435.822/435.867
RS-15 28 Feb 05:17:09 05:25:19 22° 261° (W) 05:33:19 29.354- 29.394
AO-7 28 Feb 05:27:39 05:35:36 52° 294° (WNW) 05:43:31 .
M-CUBED/EXP-1 PRIME 28 Feb 05:29:06 05:32:20 68° 253° (WSW) 05:35:35 437.505
DOVE 4 28 Feb 05:38:11 05:39:19 11° 91° (E) 05:40:29 437.250
KKS-1 28 Feb 05:40:35 05:43:28 17° 266° (W) 05:46:22 437.445
BEESAT 3 28 Feb 05:43:54 05:47:40 49° 115° (ESE) 05:51:29 437.485
XW-2D 28 Feb 05:58:29 05:59:50 12° 92° (E) 06:01:11 145.860 - 145.880
SO-50 28 Feb 06:00:06 06:02:58 16° 46° (NE) 06:05:47 436.795
XW-2B 28 Feb 06:03:11 06:05:00 13° 92° (E) 06:06:48 145.730 - 145.750
STARS 28 Feb 06:05:21 06:08:35 20° 265° (W) 06:11:50 437.465
XW-2C 28 Feb 06:11:20 06:13:52 17° 94° (E) 06:16:24 145.795 - 145.815
Tancredo 1 28 Feb 06:11:32 06:13:37 16° 129° (SE) 06:15:42 437.200
NUDT-PHONESAT 28 Feb 06:12:22 06:14:18 14° 93° (E) 06:16:13 437.300
BEESAT 2 28 Feb 06:29:02 06:32:55 65° 118° (ESE) 06:36:53 435.950
LilacSat-2 28 Feb 06:30:51 06:34:18 31° 97° (E) 06:37:42 437.200
STRAND 1 28 Feb 06:42:25 06:46:51 30° 69° (ENE) 06:51:19 437.568
CUTE-I 28 Feb 06:45:31 06:50:38 43° 99° (E) 06:55:42 437.470
DOVE 4 28 Feb 07:12:30 07:17:20 73° 284° (WNW) 07:22:26 437.250
KAITUO 1B 28 Feb 07:13:38 07:17:24 87° 283° (WNW) 07:21:07 145.475/437.950
BEESAT 3 28 Feb 07:23:24 07:25:33 14° 313° (NW) 07:27:43 437.485
XW-2F 28 Feb 07:23:52 07:27:34 51° 285° (WNW) 07:31:13 145.980 - 146.000
ISS 28 Feb 07:28:46 07:32:03 69° 320° (NW) 07:35:20 437.550
XW-2D 28 Feb 07:30:38 07:34:12 39° 286° (WNW) 07:37:44 145.860 - 145.880
XW-2B 28 Feb 07:35:50 07:39:19 35° 287° (WNW) 07:42:47 145.730 - 145.750
SO-50 28 Feb 07:39:22 07:43:46 56° 243° (WSW) 07:48:08 436.795
XW-2C 28 Feb 07:44:49 07:48:05 27° 288° (WNW) 07:51:17 145.795 - 145.815
NUDT-PHONESAT 28 Feb 07:44:56 07:48:20 32° 287° (WNW) 07:51:40 437.300
Tancredo 1 28 Feb 07:46:31 07:49:37 42° 324° (NW) 07:52:44 437.200
CUTE 1.7 + AOD 2 28 Feb 08:04:32 08:08:32 41° 98° (E) 08:12:30 437.475
LilacSat-2 28 Feb 08:06:00 08:08:17 15° 292° (WNW) 08:10:33 437.200
XW-2A 28 Feb 08:06:28 08:09:56 74° 101° (E) 08:13:21 145.665 - 145.685
BEESAT 2 28 Feb 08:09:33 08:11:07 12° 315° (NW) 08:12:41 435.950
O/OREOS (USA 219) 28 Feb 08:15:53 08:20:06 35° 64° (ENE) 08:24:19 437.305
STRAND 1 28 Feb 08:21:33 08:25:57 28° 264° (W) 08:30:23 437.568
CUTE-I 28 Feb 08:26:17 08:30:21 22° 294° (WNW) 08:34:25 437.470
HO-68 28 Feb 08:26:37 08:33:46 69° 103° (ESE) 08:40:52 435.675
AAUSAT CUBESAT 2 28 Feb 08:35:22 08:38:57 28° 96° (E) 08:42:31 437.432
AO-73 28 Feb 08:51:46 08:55:06 20° 94° (E) 08:58:22 145.935
FO-29 28 Feb 08:53:16 08:56:05 12° 54° (NE) 08:58:58 435.910
Oscar 11 28 Feb 08:54:30 08:57:27 18° 94° (E) 09:00:23 .
SEEDS 28 Feb 08:55:28 08:59:38 71° 283° (WNW) 09:03:45 437.485
CUBEBUG 2 28 Feb 08:56:24 09:01:10 75° 102° (ESE) 09:05:49 437.445
ISS 28 Feb 09:07:30 09:09:01 13° 338° (NNW) 09:10:32 437.550
TIGRISAT 28 Feb 09:09:39 09:12:21 16° 65° (ENE) 09:15:06 435.000
UNISAT 6 28 Feb 09:10:06 09:13:04 17° 66° (ENE) 09:16:03 437.425
YUBILEINY 28 Feb 09:12:36 09:17:47 17° 79° (ENE) 09:22:57 435.215
UWE-3 28 Feb 09:26:54 09:31:33 82° 285° (WNW) 09:36:07 435.000/436.395/437.385
PRISM 28 Feb 09:33:46 09:37:51 80° 75° (ENE) 09:41:55 437.425
DELFI C3 28 Feb 09:39:31 09:42:00 16° 94° (E) 09:44:30 145.870
ZACube-1 28 Feb 09:40:26 09:45:00 83° 103° (ESE) 09:49:25 437.345
CUTE 1.7 + AOD 2 28 Feb 09:41:41 09:43:59 15° 293° (WNW) 09:46:16 437.475
O/OREOS (USA 219) 28 Feb 09:55:57 09:59:14 19° 259° (W) 10:02:30 437.305
AAUSAT CUBESAT 2 28 Feb 10:11:15 10:14:12 19° 291° (WNW) 10:17:09 437.432
HO-68 28 Feb 10:15:42 10:20:47 22° 300° (WNW) 10:25:53 435.675
AO-73 28 Feb 10:27:21 10:31:22 32° 289° (WNW) 10:35:17 145.935
Oscar 11 28 Feb 10:29:45 10:33:39 33° 288° (WNW) 10:37:31 .
FO-29 28 Feb 10:32:25 10:39:31 66° 72° (ENE) 10:47:14 435.910
CUBEBUG 2 28 Feb 10:35:55 10:37:04 11° 297° (WNW) 10:38:13 437.445
TIGRISAT 28 Feb 10:44:16 10:48:35 46° 261° (W) 10:53:03 435.000
UNISAT 6 28 Feb 10:45:07 10:49:23 42° 262° (W) 10:53:46 437.425
DUCHIFAT 1 28 Feb 10:50:07 10:52:13 14° 66° (ENE) 10:54:19 145.980
AIST 2D 28 Feb 10:51:19 10:54:11 23° 72° (ENE) 10:57:05 435.315
LO-87 28 Feb 10:55:59 10:58:01 14° 94° (E) 11:00:03 145.935 - 145.965
EO-79 28 Feb 11:03:30 11:06:51 23° 69° (ENE) 11:10:14 145.935-145.965
YUBILEINY 28 Feb 11:04:32 11:13:23 84° 278° (W) 11:22:13 435.215
DELFI C3 28 Feb 11:13:23 11:16:50 30° 288° (WNW) 11:20:17 145.870
NANOSAT C BR1 28 Feb 11:17:53 11:21:36 31° 71° (ENE) 11:25:21 145.865
POLYITAN 1 28 Feb 11:21:27 11:25:22 37° 72° (ENE) 11:29:20 437.675
ESTCUBE 1 28 Feb 11:24:03 11:27:05 18° 94° (E) 11:30:06 437.505/2401.250
QB50P2 28 Feb 11:24:27 11:28:29 44° 73° (ENE) 11:32:32 145.880/145.840
BUGSAT 1 28 Feb 11:33:20 11:35:22 14° 66° (ENE) 11:37:26 437.445
FO-29 28 Feb 12:19:38 12:25:04 23° 270° (W) 12:30:50 435.910
DUCHIFAT 1 28 Feb 12:23:25 12:27:27 46° 261° (W) 12:31:32 145.980
ISS 28 Feb 12:23:43 12:24:36 11° 19° (NNE) 12:25:28 437.550
AIST 2D 28 Feb 12:25:00 12:27:22 17° 266° (W) 12:29:45 435.315
LO-87 28 Feb 12:28:21 12:31:30 28° 288° (WNW) 12:34:39 145.935 - 145.965
Oscar 19 28 Feb 12:32:06 12:35:57 22° 66° (ENE) 12:39:48 437.125/150
EO-79 28 Feb 12:38:58 12:42:29 25° 264° (W) 12:46:02 145.935-145.965
Tancredo 1 28 Feb 12:40:06 12:41:44 13° 23° (NNE) 12:43:22 437.200
50 SAT 28 Feb 12:42:19 12:45:11 24° 97° (E) 12:48:03 437.505
DX 1 28 Feb 12:50:34 12:53:54 21° 95° (E) 12:57:13 434.975-435.025
SPROUT 28 Feb 12:51:47 12:55:55 44° 99° (E) 13:00:02 437.525
NANOSAT C BR1 28 Feb 12:54:21 12:57:20 19° 266° (W) 13:00:21 145.865
UKube-1 28 Feb 12:56:04 12:58:53 17° 94° (E) 13:01:41 .
POLYITAN 1 28 Feb 12:58:42 13:01:16 16° 267° (W) 13:03:52 437.675
ESTCUBE 1 28 Feb 12:59:52 13:03:58 36° 288° (WNW) 13:08:04 437.505/2401.250
QB50P2 28 Feb 13:02:25 13:04:28 13° 268° (W) 13:06:33 145.880/145.840
BUGSAT 1 28 Feb 13:06:28 13:10:19 42° 261° (W) 13:14:15 437.445
YUBILEINY 28 Feb 13:06:43 13:11:29 15° 296° (WNW) 13:16:17 435.215
VELOX 1 28 Feb 13:09:42 13:14:08 88° 97° (E) 13:18:34 145.980
AO-85 28 Feb 13:21:44 13:25:39 88° 241° (WSW) 13:29:40 145.980
Gurwin Techsat 1B 28 Feb 13:43:28 13:48:39 59° 73° (ENE) 13:53:53 435.225
ISS 28 Feb 13:58:29 14:01:42 50° 38° (NE) 14:04:53 437.550
BEESAT 3 28 Feb 14:03:36 14:06:12 16° 48° (NE) 14:08:46 437.485
Oscar 19 28 Feb 14:10:08 14:14:58 41° 261° (W) 14:19:49 437.125/150
Tancredo 1 28 Feb 14:15:12 14:18:27 81° 42° (NE) 14:21:38 437.200
50 SAT 28 Feb 14:15:57 14:18:05 16° 291° (WNW) 14:20:13 437.505
DX 1 28 Feb 14:26:16 14:30:03 30° 290° (WNW) 14:33:51 434.975-435.025
BEESAT 28 Feb 14:27:05 14:28:30 11° 91° (E) 14:29:54 436.000
SPROUT 28 Feb 14:29:03 14:31:26 15° 294° (WNW) 14:33:48 437.525
UKube-1 28 Feb 14:31:02 14:35:00 36° 289° (WNW) 14:38:57 .
AO-7 28 Feb 14:31:55 14:39:23 38° 62° (ENE) 14:46:50 .
BEESAT 2 28 Feb 14:49:24 14:52:27 20° 50° (NE) 14:55:29 435.950
ITAMSAT 1 28 Feb 14:51:23 14:56:19 45° 71° (ENE) 15:01:18 435.822/435.867
PCSat 28 Feb 15:03:55 15:08:09 24° 107° (ESE) 15:12:24 145.827
RS-15 28 Feb 15:16:36 15:22:18 15° 96° (E) 15:28:05 29.354- 29.394
Gurwin Techsat 1B 28 Feb 15:25:56 15:28:56 15° 268° (W) 15:31:57 435.225
ISS 28 Feb 15:36:06 15:37:49 14° 232° (SW) 15:39:32 437.550
BEESAT 3 28 Feb 15:40:11 15:44:00 43° 245° (WSW) 15:47:47 437.485
MOZHAYETS 4 28 Feb 15:51:04 15:55:15 34° 97° (E) 15:59:23
NO-84 28 Feb 15:56:26 15:59:20 45° 129° (SE) 16:02:29 435.350 FM
ITUPSAT 1 28 Feb 15:57:45 16:02:33 74° 285° (WNW) 16:07:17 437.325
BEESAT 28 Feb 16:01:55 16:06:40 65° 285° (WNW) 16:11:22 436.000
AO-7 28 Feb 16:23:58 16:31:54 47° 259° (W) 16:39:52 .
BEESAT 2 28 Feb 16:26:38 16:30:17 33° 246° (WSW) 16:33:55 435.950
ITAMSAT 1 28 Feb 16:32:19 16:35:58 19° 266° (W) 16:39:39 435.822/435.867
PCSat 28 Feb 16:46:08 16:51:14 42° 303° (WNW) 16:56:23 145.827
CUBESAT XI-V 28 Feb 17:00:19 17:04:18 28° 96° (E) 17:08:15 437.345
LilacSat-2 28 Feb 17:12:05 17:13:47 13° 67° (ENE) 17:15:30 437.200
RS-15 28 Feb 17:20:43 17:32:29 75° 115° (ESE) 17:44:46 29.354- 29.394
MOZHAYETS 4 28 Feb 17:28:45 17:32:10 21° 292° (WNW) 17:35:32
KKS-1 28 Feb 17:31:46 17:36:15 77° 284° (WNW) 17:40:43 437.445
NO-84 28 Feb 17:35:06 17:37:13 16° 329° (NNW) 17:39:28 435.350 FM
KAITUO 1B 28 Feb 17:51:30 17:54:50 29° 72° (ENE) 17:58:09 145.475/437.950
STARS 28 Feb 17:55:23 17:59:51 84° 106° (ESE) 18:04:17 437.465
XW-2F 28 Feb 18:02:05 18:05:47 48° 75° (ENE) 18:09:31 145.980 - 146.000
CUTE-I 28 Feb 18:04:58 18:10:09 56° 73° (ENE) 18:15:24 437.470
